TimeEST,TemperatureF,Dew PointF,Humidity,Sea Level PressureIn,VisibilityMPH,Wind Direction,Wind SpeedMPH,Gust SpeedMPH,PrecipitationIn,Events,Conditions,WindDirDegrees,DateUTC
12:53 AM,15.1,-0.0,51,30.39,10.0,West,6.9,-,N/A,,Overcast,280,2013-01-23 05:53:00
2:53 AM,10.9,3.0,70,30.38,10.0,Calm,Calm,-,N/A,,Overcast,0,2013-01-23 07:53:00
3:53 AM,10.9,1.9,67,30.37,10.0,Calm,Calm,-,N/A,,Clear,0,2013-01-23 08:53:00
4:53 AM,10.0,1.9,70,30.36,10.0,Calm,Calm,-,N/A,,Clear,0,2013-01-23 09:53:00
5:53 AM,12.9,3.9,67,30.35,10.0,Calm,Calm,-,N/A,,Overcast,0,2013-01-23 10:53:00
6:53 AM,14.0,1.9,59,30.35,10.0,Calm,Calm,-,N/A,,Overcast,0,2013-01-23 11:53:00
7:53 AM,15.1,1.9,56,30.36,10.0,SSW,3.5,-,N/A,,Overcast,200,2013-01-23 12:53:00
8:53 AM,15.1,3.9,61,30.35,10.0,South,3.5,-,N/A,,Overcast,180,2013-01-23 13:53:00
9:53 AM,17.1,3.0,54,30.35,10.0,SSE,3.5,-,N/A,,Overcast,160,2013-01-23 14:53:00
10:53 AM,18.0,5.0,57,30.34,6.0,SSW,6.9,-,N/A,,Haze,200,2013-01-23 15:53:00
11:53 AM,21.0,5.0,50,30.31,10.0,SW,5.8,-,N/A,,Overcast,220,2013-01-23 16:53:00
12:53 PM,24.1,6.1,46,30.26,6.0,SSW,8.1,-,N/A,,Haze,200,2013-01-23 17:53:00
1:53 PM,28.0,7.0,41,30.21,10.0,SW,10.4,-,N/A,,Overcast,230,2013-01-23 18:53:00
2:53 PM,30.0,10.0,43,30.18,10.0,SW,9.2,18.4,N/A,,Clear,220,2013-01-23 19:53:00
3:53 PM,30.0,10.9,45,30.16,10.0,West,10.4,-,N/A,,Clear,270,2013-01-23 20:53:00
4:53 PM,30.9,12.9,47,30.14,10.0,SW,10.4,-,N/A,,Clear,230,2013-01-23 21:53:00
5:53 PM,30.0,14.0,51,30.14,10.0,WSW,8.1,-,N/A,,Clear,250,2013-01-23 22:53:00
6:53 PM,28.0,14.0,56,30.14,10.0,West,3.5,-,N/A,,Clear,260,2013-01-23 23:53:00
7:53 PM,21.0,12.9,71,30.14,10.0,Calm,Calm,-,N/A,,Clear,0,2013-01-24 00:53:00
8:53 PM,19.9,12.9,74,30.14,10.0,West,4.6,-,N/A,,Clear,260,2013-01-24 01:53:00
9:53 PM,26.1,15.1,63,30.14,10.0,WSW,5.8,-,N/A,,Mostly Cloudy,250,2013-01-24 02:53:00
10:53 PM,27.0,17.1,66,30.15,10.0,WNW,9.2,-,N/A,,Clear,290,2013-01-24 03:53:00
11:53 PM,27.0,15.1,61,30.18,10.0,NW,9.2,18.4,N/A,,Clear,320,2013-01-24 04:53:00